Tracking 25193 objects as of 17-Jan-2022
HD Live streaming from Space Station
objects crossing your sky now

ELEKTRON 3

Track ELEKTRON 3 now!
10-day predictions
ELEKTRON 3 is classified as:


NORAD ID: 829
Int'l Code: 1964-038A
Perigee: 414.8 km
Apogee: 6,163.1 km
Inclination: 60.8 °
Period: 157.5 minutes
Semi major axis: 9659 km
RCS: 2.8255 m2 (large)
Launch date: July 10, 1964
Source: Commonwealth of Independent States (former USSR) (CIS)
Launch site: TYURATAM MISSILE AND SPACE COMPLEX (TTMTR)
aabbcc
Your satellite tracking list
Your tracking list is empty




NASA's NSSDC Master Catalog

Two Line Element Set (TLE):
1 00829U 64038A   22017.58477677  .00000486  00000-0  14532-3 0  9999
2 00829  60.8219 259.8175 2975327 279.8867  48.3053  9.14410573867521
Source of the keplerian elements: AFSPC